Tracking 25195 objects as of 21-Jan-2022
HD Live streaming from Space Station
objects crossing your sky now

STARLINK-1581

Track STARLINK-1581 now!
10-day predictions
STARLINK-1581 is classified as:


NORAD ID: 46042
Int'l Code: 2020-055R
Perigee: 553.4 km
Apogee: 555.3 km
Inclination: 53.1 °
Period: 95.6 minutes
Semi major axis: 6925 km
RCS: Unknown
Launch date: August 7, 2020
Source: United States (US)
Launch site: AIR FORCE EASTERN TEST RANGE (AFETR)
aabbcc
Your satellite tracking list
Your tracking list is empty




NASA's NSSDC Master Catalog

Two Line Element Set (TLE):
1 46042U 20055R   22020.50631391  .00000878  00000-0  77866-4 0  9993
2 46042  53.0557  61.6175 0001330  81.3054 278.8086 15.06394415 81384
Source of the keplerian elements: AFSPC